Home > Weather > Dickinson > Past weeks

Flag for USA Past Weather in Dickinson, North Dakota, USA — Yesterday and Last 2 Weeks

Now
70 °F

Sunny.


Feels Like: 77 °F
Forecast: 49 / 74 °F
Wind: 6 mph from North

Location: Dickinson Municipal Airport

Current Time: Jun 26, 2016 at 8:28:22 PM

Latest Report: Jun 26, 2016 at 7:56 PM


Visibility: 10 mi

Pressure: 30.11 "Hg (27.65 "Hg at 735m altitude)

Humidity: 55%

Dew Point: 53 °F

Location of DickinsonLocation

Past Weather in Dickinson — Graph

°F

Dickinson Temperature Yesterday

Maximum temperature yesterday: 72 °F (at 1:56 PM)
Minimum temperature yesterday: 53 °F (at 10:56 PM)
Average temperature yesterday: 62 °F

High & Low Weather Summary for the Past Weeks

 TemperatureHumidityPressure
High89 °F (Jun 24, 2:56 PM)97% (Jun 19, 5:56 AM)30.31 "Hg (Jun 19, 5:56 AM)
Low42 °F (Jun 23, 4:56 AM)15% (Jun 19, 4:56 PM)29.54 "Hg (Jun 24, 7:56 PM)
Average66 °F64%29.91 "Hg
* Reported Jun 11 6:56 PM — Jun 26 6:56 PM, Dickinson, Weather by CustomWeather, © 2016

Note: Actual official high and low records may vary slightly from our data, if they occured in-between our weather recording intervals... More about our weather records

Advertising

Dickinson Weather History for the Previous 24 Hours

Scroll right to see more
 ConditionsComfort  
Time TempWeatherWind HumidityBarometerVisibility
6:56 PM
Sun, Jun 26
73 °FSunny.8 mph48%30.09 "Hg10 mi
5:56 PM75 °FPassing clouds.15 mph37%30.08 "Hg10 mi
4:56 PM77 °FPassing clouds.18 mph35%30.07 "Hg10 mi
3:56 PM77 °FSunny.18 mph35%30.07 "Hg10 mi
2:56 PM77 °FPassing clouds.24 mph32%30.05 "Hg10 mi
1:56 PM76 °FPassing clouds.22 mph37%30.04 "Hg10 mi
12:56 PM76 °FPassing clouds.26 mph36%30.03 "Hg10 mi
11:56 AM74 °FPassing clouds.23 mph40%30.03 "Hg10 mi
10:56 AM73 °FPassing clouds.24 mph41%30.04 "Hg10 mi
9:56 AM71 °FSunny.25 mph42%30.03 "Hg10 mi
8:56 AM68 °FSunny.21 mph49%30.02 "Hg10 mi
7:56 AM64 °FSunny.22 mph54%30.02 "Hg10 mi
6:56 AM60 °FSunny.15 mph62%30.01 "Hg10 mi
5:56 AM56 °FSunny.14 mph70%30.00 "Hg10 mi
4:56 AM53 °FClear.12 mph77%29.99 "Hg10 mi
3:56 AM53 °FClear.9 mph77%29.98 "Hg10 mi
2:56 AM56 °FClear.10 mph70%29.95 "Hg10 mi
1:56 AM57 °FClear.13 mph67%29.94 "Hg10 mi
12:56 AM55 °FClear.10 mph72%29.95 "Hg10 mi
11:56 PM
Sat, Jun 25
57 °FClear.12 mph67%29.94 "Hg10 mi
10:56 PM53 °FClear.10 mph80%29.94 "Hg10 mi
9:56 PM60 °FClear.15 mph60%29.92 "Hg10 mi
8:56 PM61 °FClear.12 mph58%29.90 "Hg10 mi
Weather by CustomWeather, © 2016

See weather overviewHow to use our weather pages